Regional Weather Roundup
Issued by NWS

Home | Current Version | Previous Version | Graphics & Text | Print | Product List | Glossary On
Versions: 1 2 3 4 5 6 7 8 9 10 11 12 13 14 15 16 17 18 19 20 21 22 23 24 25 26 27 28 29 30 31 32 33 34 35 36 37 38 39 40 41 42 43 44 45 46 47 48 49 50
000
ASUS43 KOAX 240710
RWRNE

WEATHER ROUNDUP FOR NEBRASKA
NATIONAL WEATHER SERVICE OMAHA NE
200 AM CDT MON APR 24 2017

NOTES: SATELLITE DATA IS BEING USED TO AUGMENT CLOUD COVER ABOVE
       12000 FEET.
       "FAIR" INDICATES FEW OR NO CLOUDS BELOW 12,000 FEET WITH NO
       SIGNIFICANT WEATHER AND/OR OBSTRUCTIONS TO VISIBILITY.

  * THESE STATIONS DO NOT REPORT WEATHER SUCH AS RAIN...SNOW OR FOG.

NEZ001>004-019>022-054>056-240800-
NEBRASKA PANHANDLE

CITY           SKY/WX    TMP DP  RH WIND       PRES   REMARKS
SCOTTSBLUFF    CLEAR     49  37  63 E6        29.59R
ALLIANCE       CLEAR     49  39  68 S13       29.56F
CHADRON        PTCLDY    51  41  68 N10       29.60R
KIMBALL        CLOUDY    44  40  88 S6        29.61F
SIDNEY         PTCLDY    48  42  80 S7        29.60F
$$

NEZ057>060-069>072-079>082-240800-
SOUTHWEST NEBRASKA

CITY           SKY/WX    TMP DP  RH WIND       PRES   REMARKS
NORTH PLATTE   PTCLDY    54  33  45 SE13G20   29.64F
IMPERIAL       PTCLDY    55  35  47 S23G29    29.59F
LEXINGTON      CLOUDY    54  34  47 S21G29    29.70F
MCCOOK         CLOUDY    54  34  46 SE13G20   29.66F
OGALLALA       MOCLDY    52  38  57 E7        29.61F
$$

NEZ005>010-023>029-035>040-094-240800-
NORTH CENTRAL NEBRASKA

CITY           SKY/WX    TMP DP  RH WIND       PRES   REMARKS
VALENTINE      MOCLDY    59  31  34 S12       29.60F
AINSWORTH      CLOUDY    54  34  46 S15G22    29.63F
BROKEN BOW     CLOUDY    53  35  50 S17G25    29.68F
O`NEILL        CLOUDY    56  31  38 S20       29.70F
ORD            PTCLDY    54  32  43 S13G21    29.72F
THEDFORD       MOCLDY    55  32  41 S16       29.63F
$$

NEZ041-046>049-061>064-073>077-083>087-240800-
SOUTH CENTRAL NEBRASKA

CITY           SKY/WX    TMP DP  RH WIND       PRES   REMARKS
GRAND ISLAND   CLOUDY    53  35  50 S20G26    29.78F
AURORA         PTCLDY    52  33  48 S16       29.79F
HASTINGS       PTCLDY    54  33  45 S13G23    29.80F
HEBRON         CLOUDY    52  36  53 S10       29.83F
HOLDREGE       CLOUDY    53  33  46 S16G23    29.75S
KEARNEY *      CLOUDY    54  32  43 S17       29.76F
YORK           CLOUDY    50  34  53 S12       29.82F
$$

NEZ011>018-030>034-042>045-240800-
NORTHEAST NEBRASKA

CITY           SKY/WX    TMP DP  RH WIND       PRES   REMARKS
NORFOLK        CLOUDY    54  31  41 S20G26    29.77F
ALBION         CLOUDY    54  34  46 S14       29.77F
BLAIR          PTCLDY    55  36  48 S13G18    29.85F
FREMONT        PTCLDY    53  34  48 SE13      29.84F
TEKAMAH        CLOUDY    49  37  63 SE13      29.84F
WAYNE          CLOUDY    53  35  51 S15       29.78F
$$

NEZ050>053-065>068-078-088>093-240800-
SOUTHEAST NEBRASKA

CITY           SKY/WX    TMP DP  RH WIND       PRES   REMARKS
LINCOLN        CLOUDY    49  36  61 S9        29.85F
OMAHA EPPLEY   PTCLDY    56  35  45 S12       29.86F
BEATRICE       CLOUDY    52  38  60 S12       29.85F
FALLS CITY     CLOUDY    53  37  54 S10       29.90F
NEBRASKA CITY  CLOUDY    54  31  41 S13       29.89F
PLATTSMOUTH    CLOUDY    55  31  40 S12G17    29.87F
$$

NEZ044-045-051>053-067-240800-
OMAHA AREA

CITY           SKY/WX    TMP DP  RH WIND       PRES   REMARKS
OMAHA EPPLEY   PTCLDY    56  35  45 S12       29.86F
BLAIR          PTCLDY    55  36  48 S13G18    29.85F
FREMONT        PTCLDY    53  34  48 SE13      29.84F
MILLARD        CLOUDY    54  38  55 SE6       29.86F
OFFUTT AFB     CLOUDY    54  36  50 S8        29.87F
PLATTSMOUTH    CLOUDY    55  31  40 S12G17    29.87F
WAHOO          FAIR      46  36  68 SE7       29.84F
$$




USA.gov is the U.S. government's official web portal to all federal, state and local government web resources and services.